Vorticity
9 12 9 7 10 14 15 13 11 11 13 14 17 18 17 14 12 7 3 0 1 3 7 7 10 8 12 7 5 7 7 6 5 6 5 5 3 3 4 5 6 7 7
9 4 4 8 5 6 4 5 10 8 10 13 12 9 6 7 11 15 16 15 12 -2 5 1 9 13 6 10 12 7 7 7 5 4 4 4 5 4 3 4 4 5 7
7 4 10 12 7 6 5 12 8 6 9 10 9 11 12 10 17 17 16 18 13 25 5 13 5 -8 1 6 15 9 3 5 9 6 -1 -3 4 2 2 3 3 6 5
6 12 11 7 8 8 11 8 4 7 11 8 6 9 9 12 13 15 17 19 16 17 17 -2 11 36 0 38 29 8 -13 46 4 -1 -8 -17 -6 8 26 25 8 -1 4
14 7 12 12 10 12 6 10 13 8 9 10 10 10 10 9 10 14 13 4 10 20 13 27 -2 6 -36 20 45 -9 73 23 17 24 11 -2 -6 -1 12 -12 7 6 26
7 10 12 11 10 7 7 10 11 10 11 7 10 9 9 10 15 12 2 6 7 10 21 24 -1 26 13 -4 6 -24 -28 11 13 14 2 5 5 -1 9 22 12 10 -0
10 10 9 7 8 9 10 8 10 11 10 11 10 11 11 13 10 14 11 6 7 11 3 15 6 14 18 5 -5 -2 12 27 -8 17 -6 -23 3 3 1 3 5 0 12
10 9 8 10 11 10 6 8 7 8 8 8 8 10 10 10 3 8 12 8 8 12 8 12 19 13 1 -2 3 21 11 -11 20 13 17 8 10 3 -2 -1 1 1 1
8 7 8 8 7 5 8 8 8 7 7 6 6 6 8 6 10 13 12 10 13 12 19 10 12 3 7 16 13 7 17 19 12 8 11 20 10 10 5 6 2 -0 5
6 6 6 7 9 7 8 6 6 6 6 7 8 8 7 7 7 8 6 6 6 8 13 12 12 12 14 12 9 11 13 14 17 8 11 1 12 14 11 10 15 9 8
6 5 6 6 7 10 7 8 7 5 5 6 7 7 7 7 7 7 9 10 9 9 11 6 6 12 13 12 12 11 10 9 10 9 8 7 3 7 10 13 15 18 15
5 6 7 8 7 8 8 7 5 5 6 6 7 8 8 8 8 8 9 9 11 12 10 11 10 10 8 8 9 10 9 8 8 9 10 12 12 12 12 11 13 9 12
6 7 8 8 8 8 8 8 6 5 6 6 6 7 7 7 8 9 10 10 11 12 12 10 10 13 15 14 11 8 8 9 9 10 9 8 8 7 8 10 9 9 10
8 8 8 8 8 7 7 7 7 6 6 6 6 6 6 7 8 8 9 10 13 13 12 9 9 9 11 13 14 15 13 12 12 12 13 11 10 10 8 8 9 10 10
7 8 8 8 8 7 8 7 7 7 6 6 6 6 5 6 7 7 8 9 9 12 13 12 10 9 10 10 10 11 11 12 12 11 11 11 13 14 15 15 17 15 15
8 8 8 8 8 7 8 7 7 7 7 6 6 6 6 6 6 6 8 9 10 9 11 13 11 11 11 11 12 14 14 13 12 13 15 16 15 14 12 12 12 13 13
9 9 9 8 8 7 7 7 8 8 8 7 7 7 6 6 6 7 9 9 10 10 11 13 11 12 13 12 11 10 10 10 10 10 10 9 9 9 9 8 8 7 7
8 9 8 8 9 9 8 9 9 9 9 8 7 7 6 6 6 6 8 9 10 10 10 11 14 15 12 8 7 9 11 11 8 5 2 4 5 7 9 10 11 11 10
8 8 9 9 9 9 9 9 10 9 9 8 7 7 6 6 5 6 9 10 10 10 9 10 14 14 10 8 7 9 9 7 7 8 8 10 11 11 10 6 5 3 3
7 7 7 7 8 8 9 9 10 10 11 10 9 8 7 6 5 6 9 10 10 10 10 11 14 13 9 8 10 10 8 8 8 10 11 12 12 9 7 7 5 6 5
8 6 6 6 6 7 8 8 9 10 10 11 9 8 7 6 4 7 9 10 10 11 11 13 14 12 10 8 8 9 9 8 8 8 9 10 11 8 9 9 8 8 8
10 9 7 6 6 6 8 8 8 10 10 12 11 8 6 3 3 6 9 10 11 12 13 14 13 11 8 8 8 8 8 6 9 10 12 13 14 12 11 11 11 12 11
11 12 10 7 6 6 7 8 8 10 10 11 12 9 9 5 5 6 12 10 12 12 14 13 12 10 9 7 8 9 8 10 11 10 11 9 11 11 11 12 12 13 14
13 13 11 9 8 6 6 8 5 8 10 11 13 10 8 3 4 8 11 10 12 14 15 11 10 10 8 8 9 9 10 9 10 10 13 13 13 13 12 13 14 15 14
12 12 14 12 12 9 5 2 11 2 10 12 13 11 7 3 6 8 12 10 9 16 14 12 11 9 9 10 10 10 10 11 13 13 10 8 7 9 8 9 13 18 19
12 12 12 14 16 9 6 5 34 2 8 11 12 11 6 2 -1 10 17 8 11 17 14 11 10 9 10 10 10 9 12 13 8 5 7 8 11 14 16 17 20 20 17
Height
3140 3139 3137 3135 3133 3131 3130 3129 3127 3126 3125 3123 3123 3122 3122 3122 3122 3122 3122 3123 3124 3124 3124 3124 3124 3124 3124 3124 3124 3124 3125 3126 3126 3127 3127 3128 3129 3130 3130 3130 3130 3131 3131
3135 3134 3132 3130 3128 3126 3125 3123 3122 3120 3119 3118 3118 3117 3116 3115 3115 3115 3115 3115 3116 3115 3115 3115 3116 3117 3117 3117 3117 3116 3116 3117 3117 3118 3120 3121 3122 3123 3125 3125 3126 3126 3126
3131 3129 3127 3126 3124 3122 3120 3118 3117 3115 3114 3113 3112 3112 3111 3109 3107 3106 3105 3104 3103 3103 3104 3105 3109 3108 3109 3108 3107 3107 3108 3108 3108 3110 3112 3114 3116 3117 3118 3119 3120 3120 3120
3126 3125 3122 3121 3119 3117 3116 3114 3112 3111 3110 3110 3108 3107 3105 3103 3101 3098 3097 3095 3095 3095 3096 3099 3099 3100 3100 3095 3099 3093 3096 3092 3092 3099 3103 3105 3108 3109 3104 3109 3113 3113 3114
3122 3120 3118 3116 3115 3113 3112 3111 3108 3107 3106 3105 3104 3102 3101 3097 3093 3091 3090 3090 3090 3089 3089 3089 3091 3092 3088 3088 3085 3090 3076 3087 3088 3090 3092 3094 3097 3099 3100 3102 3103 3099 3106
3117 3115 3114 3113 3111 3110 3109 3107 3105 3102 3102 3100 3099 3097 3095 3090 3088 3086 3085 3085 3083 3082 3081 3082 3083 3084 3084 3078 3076 3074 3073 3076 3080 3082 3084 3087 3092 3093 3095 3094 3093 3095 3097
3113 3111 3110 3109 3108 3107 3105 3104 3102 3100 3098 3096 3095 3092 3088 3086 3083 3082 3082 3080 3079 3077 3076 3076 3075 3076 3076 3075 3072 3072 3075 3078 3077 3077 3079 3083 3085 3085 3087 3087 3088 3088 3088
3110 3108 3107 3106 3105 3104 3102 3101 3099 3097 3095 3093 3091 3089 3086 3083 3079 3079 3079 3077 3075 3073 3071 3070 3071 3069 3069 3069 3071 3070 3068 3069 3070 3071 3071 3073 3075 3076 3077 3077 3078 3080 3080
3107 3106 3105 3104 3102 3101 3100 3099 3097 3094 3091 3089 3086 3084 3081 3080 3077 3075 3074 3070 3070 3068 3066 3063 3063 3063 3062 3061 3061 3060 3060 3059 3057 3059 3062 3062 3062 3064 3064 3065 3067 3071 3074
3105 3104 3102 3101 3100 3099 3097 3095 3093 3091 3088 3085 3082 3079 3077 3076 3074 3074 3069 3065 3065 3062 3061 3056 3056 3055 3054 3052 3053 3052 3051 3051 3051 3053 3052 3052 3051 3051 3053 3056 3058 3060 3063
3102 3100 3099 3097 3097 3096 3094 3092 3090 3087 3085 3082 3079 3076 3073 3069 3068 3066 3065 3064 3060 3055 3054 3049 3048 3048 3047 3045 3045 3043 3042 3042 3042 3041 3040 3041 3043 3042 3043 3044 3044 3044 3049
3099 3098 3097 3095 3093 3092 3090 3088 3086 3083 3080 3077 3074 3072 3070 3067 3063 3060 3057 3055 3054 3052 3047 3042 3039 3040 3040 3038 3037 3036 3034 3033 3032 3032 3031 3031 3033 3032 3033 3033 3034 3032 3036
3095 3094 3092 3091 3089 3087 3086 3084 3081 3079 3076 3073 3070 3067 3064 3061 3059 3055 3052 3048 3047 3046 3041 3036 3030 3031 3032 3031 3028 3027 3024 3024 3022 3022 3022 3021 3022 3022 3021 3022 3023 3022 3023
3091 3090 3088 3086 3084 3082 3080 3078 3075 3073 3071 3068 3066 3062 3059 3056 3053 3049 3046 3042 3042 3038 3035 3029 3024 3022 3022 3021 3020 3019 3017 3015 3014 3014 3013 3012 3011 3011 3011 3011 3010 3011 3012
3086 3085 3083 3081 3079 3077 3075 3072 3070 3068 3065 3063 3059 3056 3053 3050 3047 3044 3040 3036 3032 3031 3030 3024 3019 3016 3015 3014 3012 3011 3009 3007 3006 3005 3004 3003 3003 3002 3002 3001 3001 3002 3002
3081 3079 3077 3075 3073 3071 3069 3067 3064 3062 3059 3056 3053 3050 3047 3044 3040 3037 3033 3030 3025 3022 3021 3017 3013 3009 3007 3005 3004 3003 3003 3000 2999 2998 2997 2996 2995 2994 2992 2991 2991 2991 2990
3075 3073 3071 3069 3067 3064 3062 3060 3058 3055 3052 3050 3047 3044 3040 3037 3033 3030 3027 3023 3019 3014 3012 3013 3006 3002 3000 2997 2995 2994 2993 2993 2991 2989 2989 2986 2986 2986 2985 2984 2983 2982 2981
3068 3066 3064 3062 3060 3058 3055 3052 3050 3047 3045 3042 3039 3037 3033 3030 3027 3023 3019 3015 3011 3007 3003 3002 3000 2996 2993 2990 2987 2986 2985 2984 2983 2982 2980 2978 2977 2976 2975 2974 2973 2972 2971
3062 3060 3057 3055 3053 3051 3048 3045 3043 3040 3037 3035 3033 3030 3027 3023 3020 3015 3011 3007 3003 3000 2995 2990 2991 2988 2985 2983 2981 2979 2978 2976 2976 2975 2972 2970 2968 2967 2966 2965 2963 2963 2962
3054 3052 3050 3048 3046 3043 3041 3038 3035 3033 3030 3028 3025 3023 3019 3016 3012 3008 3004 2999 2995 2991 2987 2983 2980 2980 2978 2975 2972 2970 2970 2967 2967 2965 2964 2961 2960 2959 2957 2955 2954 2952 2951
3045 3043 3042 3040 3038 3035 3033 3030 3027 3025 3022 3020 3017 3014 3012 3009 3005 3000 2996 2992 2987 2983 2979 2974 2972 2971 2970 2967 2964 2961 2960 2958 2958 2956 2953 2951 2949 2948 2947 2944 2941 2940 2937
3035 3034 3033 3031 3029 3027 3024 3022 3018 3016 3013 3011 3009 3006 3003 3000 2997 2993 2988 2984 2980 2974 2970 2966 2964 2962 2960 2957 2955 2952 2949 2947 2945 2945 2941 2941 2938 2936 2933 2931 2929 2926 2924
3025 3024 3023 3021 3020 3018 3015 3013 3010 3008 3005 3001 2998 2996 2994 2991 2987 2983 2980 2975 2971 2966 2961 2957 2955 2954 2951 2948 2945 2942 2941 2937 2934 2933 2928 2927 2926 2922 2920 2917 2915 2912 2909
3016 3014 3013 3012 3010 3009 3007 3004 3001 2999 2996 2992 2989 2987 2985 2982 2978 2974 2970 2967 2963 2959 2954 2950 2947 2946 2942 2940 2937 2933 2929 2925 2924 2922 2917 2911 2911 2907 2906 2905 2902 2898 2894
3009 3007 3005 3003 3001 3001 2999 2996 2993 2989 2986 2984 2980 2977 2975 2973 2970 2965 2959 2957 2953 2950 2945 2942 2940 2937 2935 2932 2928 2923 2920 2915 2912 2910 2908 2901 2898 2894 2891 2889 2887 2884 2881
2999 2997 2996 2995 2994 2992 2990 2986 2983 2980 2977 2975 2971 2968 2966 2962 2959 2955 2950 2946 2943 2940 2936 2934 2932 2929 2926 2923 2920 2915 2911 2907 2904 2901 2898 2892 2887 2881 2873 2872 2870 2868 2864